When you browse on this site, cookies collect data to enhance your experience and personalize the content and advertising you see.
Visit our Privacy Policy to learn more. By continuing to use the site, you agree to this use of cookies and data.
  • In Hungary
  • List of Countries
  • For 7 days
  • Water Temperature
  • Satellite Maps
  • Weather Map
  • News
  • Weather Widgets
  • user-avatar
    Login

    Hourly Weather Jadowniki

    Today, 19 May, Sunday

    Time Temperature Precipitation Wind Pressure Humidity
    00:00 +14°C° 0 mm 1 mps 736 mmHg 91%
    01:00 +13°C° 0 mm 1 mps 736 mmHg 91%
    02:00 +13°C° 0 mm 1 mps 736 mmHg 91%
    03:00 +12°C° 0 mm 1 mps 736 mmHg 91%
    04:00 +12°C° 0 mm 1 mps 736 mmHg 91%
    05:00 +14°C° 0 mm 1 mps 736 mmHg 87%
    06:00 +16°C° 0 mm 1 mps 736 mmHg 83%
    07:00 +18°C° 0 mm 1 mps 736 mmHg 78%
    08:00 +20°C° 0 mm 1 mps 736 mmHg 73%
    09:00 +21°C° 0 mm 2 mps 736 mmHg 68%
    10:00 +23°C° 0 mm 2 mps 736 mmHg 62%
    11:00 +24°C° 0.1 mm 3 mps 736 mmHg 60%
    12:00 +25°C° 0.1 mm 4 mps 735 mmHg 58%
    13:00 +26°C° 0.1 mm 5 mps 735 mmHg 55%
    14:00 +25°C° 0.1 mm 5 mps 735 mmHg 58%
    15:00 +25°C° 0.1 mm 5 mps 735 mmHg 61%
    16:00 +25°C° 0.1 mm 5 mps 735 mmHg 64%
    17:00 +22°C° 0 mm 4 mps 735 mmHg 69%
    18:00 +20°C° 0 mm 4 mps 734 mmHg 74%
    19:00 +18°C° 0 mm 4 mps 734 mmHg 79%
    20:00 +17°C° 0 mm 3 mps 734 mmHg 82%
    21:00 +16°C° 0 mm 3 mps 734 mmHg 86%
    22:00 +14°C° 0 mm 3 mps 734 mmHg 89%
    23:00 +14°C° 0 mm 3 mps 734 mmHg 89%

    Tomorrow, 20 May, Monday

    Time Temperature Precipitation Wind Pressure Humidity
    00:00 +15°C° 0 mm 2 mps 734 mmHg 90%
    01:00 +14°C° 0 mm 2 mps 734 mmHg 90%
    02:00 +14°C° 0 mm 2 mps 733 mmHg 90%
    03:00 +14°C° 0 mm 2 mps 733 mmHg 90%
    04:00 +14°C° 0 mm 2 mps 733 mmHg 90%
    05:00 +16°C° 0 mm 3 mps 733 mmHg 86%
    06:00 +17°C° 0 mm 3 mps 733 mmHg 83%
    07:00 +19°C° 0 mm 4 mps 733 mmHg 79%
    08:00 +20°C° 0 mm 4 mps 733 mmHg 74%
    09:00 +22°C° 0 mm 5 mps 734 mmHg 68%
    10:00 +25°C° 0 mm 5 mps 734 mmHg 63%
    11:00 +25°C° 0 mm 5 mps 734 mmHg 59%
    12:00 +25°C° 0 mm 5 mps 734 mmHg 56%
    13:00 +26°C° 0 mm 5 mps 734 mmHg 53%
    14:00 +25°C° 0 mm 5 mps 734 mmHg 55%
    15:00 +25°C° 0 mm 5 mps 734 mmHg 58%
    16:00 +25°C° 0 mm 4 mps 734 mmHg 60%
    17:00 +22°C° 0 mm 4 mps 734 mmHg 65%
    18:00 +20°C° 0 mm 4 mps 734 mmHg 70%
    19:00 +18°C° 0 mm 3 mps 734 mmHg 74%
    20:00 +17°C° 0 mm 3 mps 734 mmHg 76%
    21:00 +16°C° 0 mm 3 mps 734 mmHg 77%
    22:00 +16°C° 0 mm 2 mps 734 mmHg 79%
    23:00 +15°C° 0 mm 2 mps 734 mmHg 81%

    Day after tomorrow, 21 May, Tuesday

    Time Temperature Precipitation Wind Pressure Humidity
    00:00 +14°C° 0 mm 2 mps 734 mmHg 83%
    01:00 +13°C° 0 mm 2 mps 734 mmHg 85%
    02:00 +13°C° 0 mm 2 mps 734 mmHg 85%
    03:00 +13°C° 0 mm 2 mps 734 mmHg 84%
    04:00 +13°C° 0 mm 1 mps 734 mmHg 83%
    05:00 +14°C° 0 mm 1 mps 734 mmHg 80%
    06:00 +15°C° 0 mm 1 mps 735 mmHg 77%
    07:00 +16°C° 0 mm 0 mps 735 mmHg 74%
    08:00 +18°C° 0.5 mm 1 mps 735 mmHg 75%
    09:00 +18°C° 0.5 mm 1 mps 735 mmHg 76%
    10:00 +17°C° 0.5 mm 2 mps 735 mmHg 77%
    11:00 +19°C° 0.5 mm 1 mps 735 mmHg 76%
    12:00 +19°C° 0.5 mm 1 mps 736 mmHg 74%
    13:00 +19°C° 0.5 mm 1 mps 736 mmHg 73%
    14:00 +18°C° 0.1 mm 2 mps 736 mmHg 70%
    15:00 +19°C° 0.1 mm 2 mps 736 mmHg 67%
    16:00 +20°C° 0.1 mm 2 mps 736 mmHg 64%
    17:00 +18°C° 0.2 mm 2 mps 736 mmHg 69%
    18:00 +18°C° 0.2 mm 1 mps 736 mmHg 75%
    19:00 +16°C° 0.2 mm 1 mps 736 mmHg 80%
    20:00 +15°C° 0 mm 1 mps 736 mmHg 82%
    21:00 +15°C° 0 mm 2 mps 736 mmHg 83%
    22:00 +14°C° 0 mm 2 mps 737 mmHg 85%
    23:00 +14°C° 0.1 mm 2 mps 736 mmHg 87%

    22 May, Wednesday

    Time Temperature Precipitation Wind Pressure Humidity
    00:00 +14°C° 0.1 mm 2 mps 736 mmHg 89%
    01:00 +13°C° 0.1 mm 2 mps 736 mmHg 90%
    02:00 +13°C° 0 mm 2 mps 736 mmHg 91%
    03:00 +13°C° 0 mm 2 mps 736 mmHg 91%
    04:00 +13°C° 0 mm 2 mps 737 mmHg 92%
    05:00 +14°C° 0 mm 1 mps 737 mmHg 88%
    06:00 +15°C° 0 mm 1 mps 737 mmHg 85%
    07:00 +16°C° 0 mm 1 mps 737 mmHg 82%
    08:00 +17°C° 0.7 mm 2 mps 737 mmHg 79%
    09:00 +18°C° 0.7 mm 2 mps 737 mmHg 76%
    10:00 +19°C° 0.7 mm 2 mps 737 mmHg 73%
    11:00 +19°C° 1.2 mm 2 mps 737 mmHg 74%
    12:00 +19°C° 1.2 mm 3 mps 737 mmHg 75%
    13:00 +20°C° 1.2 mm 3 mps 737 mmHg 75%
    14:00 +20°C° 0.6 mm 3 mps 737 mmHg 76%
    15:00 +19°C° 0.6 mm 3 mps 737 mmHg 77%
    16:00 +19°C° 0.6 mm 3 mps 737 mmHg 78%
    17:00 +18°C° 0.7 mm 3 mps 737 mmHg 83%
    18:00 +17°C° 0.7 mm 3 mps 737 mmHg 87%
    19:00 +16°C° 0.7 mm 3 mps 737 mmHg 91%
    20:00 +14°C° 0.1 mm 3 mps 737 mmHg 92%
    21:00 +13°C° 0.1 mm 3 mps 738 mmHg 93%
    22:00 +13°C° 0.1 mm 3 mps 738 mmHg 95%
    23:00 +12°C° 0 mm 3 mps 738 mmHg 95%

    23 May, Thursday

    Time Temperature Precipitation Wind Pressure Humidity
    00:00 +12°C° 0 mm 3 mps 738 mmHg 95%
    01:00 +12°C° 0 mm 3 mps 738 mmHg 95%
    02:00 +12°C° 0 mm 3 mps 738 mmHg 95%
    03:00 +12°C° 0 mm 2 mps 738 mmHg 96%
    04:00 +12°C° 0 mm 1 mps 738 mmHg 96%
    05:00 +13°C° 0 mm 2 mps 738 mmHg 93%
    06:00 +14°C° 0 mm 2 mps 738 mmHg 91%
    07:00 +15°C° 0 mm 2 mps 738 mmHg 89%
    08:00 +15°C° 0.1 mm 2 mps 738 mmHg 88%
    09:00 +16°C° 0.1 mm 2 mps 739 mmHg 87%
    10:00 +16°C° 0.1 mm 2 mps 739 mmHg 86%
    11:00 +15°C° 0.3 mm 4 mps 739 mmHg 85%
    12:00 +16°C° 0.3 mm 5 mps 739 mmHg 85%
    13:00 +16°C° 0.3 mm 6 mps 739 mmHg 85%
    14:00 +15°C° 0.2 mm 6 mps 739 mmHg 87%
    15:00 +13°C° 0.2 mm 6 mps 739 mmHg 89%
    16:00 +11°C° 0.2 mm 7 mps 739 mmHg 90%
    17:00 +10°C° 0.3 mm 6 mps 739 mmHg 91%
    18:00 +10°C° 0.3 mm 6 mps 739 mmHg 93%
    19:00 +9°C° 0.3 mm 5 mps 740 mmHg 94%
    20:00 +10°C° 0.5 mm 5 mps 740 mmHg 94%
    21:00 +11°C° 0.5 mm 4 mps 740 mmHg 94%
    22:00 +11°C° 0.5 mm 4 mps 741 mmHg 95%
    23:00 +10°C° 0.5 mm 4 mps 741 mmHg 95%

    24 May, Friday

    Time Temperature Precipitation Wind Pressure Humidity
    00:00 +10°C° 0.5 mm 4 mps 741 mmHg 95%
    01:00 +10°C° 0.5 mm 4 mps 741 mmHg 94%
    02:00 +10°C° 0.1 mm 3 mps 741 mmHg 94%
    03:00 +10°C° 0.1 mm 3 mps 741 mmHg 94%
    04:00 +10°C° 0.1 mm 2 mps 741 mmHg 94%
    05:00 +10°C° 0 mm 2 mps 741 mmHg 91%
    06:00 +12°C° 0 mm 2 mps 741 mmHg 88%
    07:00 +13°C° 0 mm 2 mps 741 mmHg 86%
    08:00 +14°C° 0 mm 2 mps 740 mmHg 80%
    09:00 +15°C° 0 mm 2 mps 740 mmHg 74%
    10:00 +16°C° 0 mm 2 mps 739 mmHg 69%
    11:00 +16°C° 0 mm 2 mps 739 mmHg 67%
    12:00 +17°C° 0 mm 2 mps 738 mmHg 65%
    13:00 +18°C° 0 mm 2 mps 738 mmHg 64%
    14:00 +18°C° 0 mm 2 mps 738 mmHg 63%
    15:00 +18°C° 0 mm 2 mps 737 mmHg 62%
    16:00 +19°C° 0 mm 2 mps 737 mmHg 61%
    17:00 +18°C° 0 mm 1 mps 736 mmHg 66%
    18:00 +16°C° 0 mm 1 mps 736 mmHg 70%
    19:00 +15°C° 0 mm 1 mps 736 mmHg 75%
    20:00 +14°C° 0 mm 1 mps 736 mmHg 78%
    21:00 +13°C° 0 mm 1 mps 735 mmHg 81%
    22:00 +12°C° 0 mm 1 mps 735 mmHg 84%
    23:00 +11°C° 0 mm 1 mps 735 mmHg 85%
    Show more